Location: Praha
(50.0875°N, 14.4213°E)
Time: 06:30:07
(UTC+02:00)

ISS - Pass Details

Date: 25 May 2026
Orbit: 413 x 423 km, 51.6° (Epoch: 5 June)

Event Time Altitude Azimuth Distance (km) Brightness Sun altitude
Rises 21:52:25 0° 280° (W) 2,351 1.0 -7.7°
Reaches altitude 10° 21:55:30 10° 249° (WSW) 1,484 -0.7 -8.1°
Maximum altitude 21:56:55 12° 224° (SW) 1,353 -1.2 -8.2°
Drops below altitude 10° 21:58:20 10° 198° (SSW) 1,481 -1.3 -8.4°
Enters shadow 21:59:45 - 180° (S) 1,814 -1.0 -8.5°
